TimeCST,TemperatureF,Dew PointF,Humidity,Sea Level PressureIn,VisibilityMPH,Wind Direction,Wind SpeedMPH,Gust SpeedMPH,PrecipitationIn,Events,Conditions,WindDirDegrees,DateUTC
12:53 AM,41.0,30.9,67,30.36,10.0,NW,5.8,-,N/A,,Clear,320,2012-11-16 06:53:00
1:53 AM,39.0,30.0,70,30.38,10.0,NNW,5.8,-,N/A,,Clear,330,2012-11-16 07:53:00
2:53 AM,37.0,30.0,76,30.40,10.0,NNW,5.8,-,N/A,,Clear,340,2012-11-16 08:53:00
3:53 AM,36.0,30.0,79,30.41,10.0,NNW,5.8,-,N/A,,Clear,340,2012-11-16 09:53:00
4:28 AM,37.4,30.2,75,30.40,10.0,NNW,8.1,-,N/A,,Mostly Cloudy,340,2012-11-16 10:28:00
4:53 AM,37.9,30.9,76,30.43,10.0,North,9.2,-,N/A,,Mostly Cloudy,350,2012-11-16 10:53:00
5:14 AM,39.2,30.2,70,30.41,10.0,North,8.1,-,N/A,,Scattered Clouds,360,2012-11-16 11:14:00
5:53 AM,37.0,30.9,79,30.43,10.0,North,4.6,-,N/A,,Clear,360,2012-11-16 11:53:00
6:53 AM,37.0,30.0,76,30.45,10.0,North,6.9,-,N/A,,Clear,350,2012-11-16 12:53:00
7:53 AM,39.9,32.0,73,30.46,10.0,North,6.9,-,N/A,,Clear,360,2012-11-16 13:53:00
8:37 AM,42.8,33.8,70,30.45,10.0,North,9.2,-,N/A,,Mostly Cloudy,360,2012-11-16 14:37:00
8:53 AM,43.0,34.0,71,30.48,10.0,North,9.2,-,N/A,,Overcast,10,2012-11-16 14:53:00
9:53 AM,45.0,36.0,71,30.49,10.0,NNE,6.9,-,N/A,,Overcast,30,2012-11-16 15:53:00
10:53 AM,48.0,37.9,68,30.49,10.0,NE,10.4,-,N/A,,Overcast,40,2012-11-16 16:53:00
11:53 AM,44.1,37.0,76,30.50,10.0,NE,9.2,-,N/A,,Overcast,40,2012-11-16 17:53:00
12:53 PM,44.1,37.0,76,30.50,10.0,ENE,13.8,-,N/A,,Overcast,60,2012-11-16 18:53:00
1:53 PM,43.0,35.1,74,30.50,10.0,NE,12.7,-,N/A,,Overcast,50,2012-11-16 19:53:00
2:53 PM,42.1,34.0,73,30.51,10.0,NE,8.1,-,N/A,,Overcast,50,2012-11-16 20:53:00
3:53 PM,37.9,32.0,79,30.52,10.0,NE,3.5,-,N/A,,Mostly Cloudy,50,2012-11-16 21:53:00
4:00 PM,37.4,32.0,81,30.49,10.0,NE,3.5,-,N/A,,Scattered Clouds,50,2012-11-16 22:00:00
4:53 PM,32.0,28.9,88,30.51,10.0,Calm,Calm,-,N/A,,Clear,0,2012-11-16 22:53:00
5:53 PM,30.0,28.0,92,30.51,10.0,Calm,Calm,-,N/A,,Clear,0,2012-11-16 23:53:00
6:53 PM,30.0,28.9,96,30.50,10.0,ENE,3.5,-,N/A,,Clear,60,2012-11-17 00:53:00
7:53 PM,30.9,28.9,92,30.50,10.0,Calm,Calm,-,N/A,,Clear,0,2012-11-17 01:53:00
8:53 PM,28.9,28.0,96,30.49,10.0,Calm,Calm,-,N/A,,Clear,0,2012-11-17 02:53:00
9:53 PM,25.0,24.1,96,30.49,8.0,Calm,Calm,-,N/A,,Clear,0,2012-11-17 03:53:00
10:53 PM,26.1,25.0,96,30.49,7.0,WNW,3.5,-,N/A,,Clear,290,2012-11-17 04:53:00
11:53 PM,24.1,24.1,100,30.51,7.0,Calm,Calm,-,N/A,,Clear,0,2012-11-17 05:53:00